Location: Appeville
(49.3218°N, 1.3427°W)
Time: 10:36:40
(UTC+00:00)

Cosmos 1340 - Pass Details

Date: 08 December 2019
Orbit: 502 x 506 km, 81.2° (Epoch: 21 January)

Event Time Altitude Azimuth Distance (km) Brightness Sun altitude
Rises 06:55:23 0° 216° (SW) 2,590 6.1 -8.1°
Reaches altitude 10° 06:57:41 10° 228° (SW) 1,712 5.1 -7.8°
Maximum altitude 07:01:00 29° 290° (WNW) 951 3.5 -7.3°
Drops below altitude 10° 07:04:21 10° 352° (N) 1,727 5.0 -6.8°
Sets 07:06:41 0° 4° (N) 2,618 6.0 -6.5°
